TimeAKST,TemperatureF,Dew PointF,Humidity,Sea Level PressureIn,VisibilityMPH,Wind Direction,Wind SpeedMPH,Gust SpeedMPH,PrecipitationIn,Events,Conditions,WindDirDegrees,DateUTC
12:53 AM,35.1,30.9,85,29.66,10.0,NNW,6.9,-,0.00,Rain,Light Rain,330,2012-11-24 09:53:00
1:53 AM,35.1,32.0,89,29.66,10.0,NNW,8.1,-,0.00,,Overcast,340,2012-11-24 10:53:00
2:53 AM,35.1,30.9,85,29.67,10.0,NNW,4.6,-,0.01,Rain,Light Rain,330,2012-11-24 11:53:00
3:33 AM,33.8,32.0,93,29.67,4.0,Calm,Calm,-,0.03,Rain-Snow,Light Rain,0,2012-11-24 12:33:00
3:46 AM,33.8,32.0,93,29.67,4.0,Calm,Calm,-,0.04,Snow,Light Snow,0,2012-11-24 12:46:00
3:53 AM,33.1,32.0,96,29.68,4.0,Calm,Calm,-,0.04,Snow,Light Snow,0,2012-11-24 12:53:00
4:34 AM,33.8,32.0,93,29.68,1.8,Calm,Calm,-,0.03,Rain-Snow,Light Snow,0,2012-11-24 13:34:00
4:41 AM,33.8,32.0,93,29.68,1.2,Calm,Calm,-,0.04,Snow,Light Snow,0,2012-11-24 13:41:00
4:53 AM,33.1,32.0,96,29.69,1.2,Calm,Calm,-,0.07,Snow,Light Snow,0,2012-11-24 13:53:00
4:57 AM,33.8,32.0,93,29.69,2.0,Calm,Calm,-,0.00,Snow,Light Snow,0,2012-11-24 13:57:00
5:19 AM,33.8,32.0,93,29.68,3.0,NW,5.8,-,0.02,Snow,Light Snow,310,2012-11-24 14:19:00
5:53 AM,33.1,32.0,96,29.68,6.0,NW,8.1,-,0.03,Snow,Light Snow,310,2012-11-24 14:53:00
6:14 AM,33.8,32.0,93,29.68,9.0,NW,6.9,-,0.00,Snow,Light Snow,310,2012-11-24 15:14:00
6:53 AM,34.0,32.0,92,29.69,10.0,SW,4.6,-,0.00,,Overcast,220,2012-11-24 15:53:00
7:39 AM,33.8,32.0,93,29.69,7.0,Calm,Calm,-,0.00,Snow,Light Snow,0,2012-11-24 16:39:00
7:53 AM,33.1,32.0,96,29.70,3.0,West,3.5,-,0.00,Snow,Light Snow,280,2012-11-24 16:53:00
8:18 AM,33.8,32.0,93,29.70,3.0,Calm,Calm,-,0.00,Snow,Light Snow,0,2012-11-24 17:18:00
8:39 AM,33.8,30.2,87,29.71,9.0,SSW,5.8,-,0.00,,Mostly Cloudy,200,2012-11-24 17:39:00
8:53 AM,34.0,30.9,89,29.72,10.0,SSW,4.6,-,0.00,,Overcast,200,2012-11-24 17:53:00
9:53 AM,32.0,30.9,96,29.73,10.0,West,3.5,-,N/A,,Mostly Cloudy,270,2012-11-24 18:53:00
10:53 AM,34.0,32.0,92,29.74,10.0,West,3.5,-,N/A,,Mostly Cloudy,280,2012-11-24 19:53:00
11:39 AM,33.8,32.0,93,29.75,2.0,Calm,Calm,-,0.02,Snow,Light Snow,0,2012-11-24 20:39:00
11:53 AM,33.1,32.0,96,29.75,2.0,Calm,Calm,-,0.03,Snow,Light Snow,0,2012-11-24 20:53:00
12:03 PM,33.8,32.0,93,29.75,4.0,Calm,Calm,-,0.00,Snow,Light Snow,0,2012-11-24 21:03:00
12:53 PM,34.0,30.9,89,29.77,7.0,Variable,3.5,-,0.00,,Overcast,0,2012-11-24 21:53:00
1:53 PM,34.0,30.9,89,29.78,7.0,Calm,Calm,-,N/A,,Overcast,0,2012-11-24 22:53:00
2:53 PM,34.0,28.0,79,29.78,7.0,Variable,6.9,-,N/A,,Overcast,0,2012-11-24 23:53:00
3:53 PM,34.0,25.0,70,29.80,10.0,SW,6.9,-,N/A,,Overcast,220,2012-11-25 00:53:00
4:53 PM,33.1,26.1,75,29.82,10.0,NW,5.8,-,N/A,,Overcast,310,2012-11-25 01:53:00
5:53 PM,33.1,27.0,78,29.83,10.0,WNW,6.9,-,N/A,,Overcast,300,2012-11-25 02:53:00
6:53 PM,33.1,24.1,70,29.85,10.0,WNW,9.2,-,N/A,,Overcast,300,2012-11-25 03:53:00
7:53 PM,32.0,25.0,75,29.87,10.0,NW,6.9,-,N/A,,Overcast,320,2012-11-25 04:53:00
8:53 PM,32.0,24.1,73,29.88,10.0,NW,10.4,-,N/A,,Mostly Cloudy,310,2012-11-25 05:53:00
9:53 PM,28.9,24.1,82,29.89,10.0,West,5.8,-,N/A,,Mostly Cloudy,270,2012-11-25 06:53:00
10:53 PM,26.1,23.0,88,29.91,10.0,West,4.6,-,N/A,,Scattered Clouds,260,2012-11-25 07:53:00
11:53 PM,25.0,19.9,81,29.92,10.0,West,6.9,-,N/A,,Partly Cloudy,280,2012-11-25 08:53:00